| time (UTC) | temp C | wind direction | speed KPH | gust KPH | rain 1hr cm | rain 24hr cm | rain mn cm | humidity % | barometer mb |
| 20260507100100 | 3 | 0 | 0.0 | 4.8 | 0.00 | 1.57 | 0.00 | 94 | 1007.5 |
| 20260507095557 | 3 | 276 | 3.2 | 4.8 | 0.00 | 1.57 | 0.00 | 93 | 1007.4 |
| 20260507095100 | 3 | 276 | 0.0 | 3.2 | 0.00 | 1.57 | 0.00 | 94 | 1007.4 |
| 20260507094559 | 3 | 0 | 0.0 | 3.2 | 0.00 | 1.57 | 0.00 | 94 | 1007.5 |
| 20260507094100 | 3 | 275 | 0.0 | 3.2 | 0.00 | 1.57 | 0.00 | 93 | 1007.6 |
| 20260507093556 | 3 | 275 | 0.0 | 3.2 | 0.00 | 1.57 | 0.00 | 93 | 1007.5 |
| 20260507093059 | 3 | 0 | 1.6 | 3.2 | 0.00 | 1.57 | 0.00 | 94 | 1007.6 |
| 20260507092600 | 3 | 275 | 0.0 | 1.6 | 0.00 | 1.57 | 0.00 | 93 | 1007.7 |
| 20260507092102 | 3 | 0 | 0.0 | 1.6 | 0.00 | 1.57 | 0.00 | 93 | 1007.7 |
| 20260507091611 | 3 | 0 | 0.0 | 3.2 | 0.00 | 1.57 | 0.00 | 93 | 1007.7 |
| 20260507091057 | 3 | 0 | 0.0 | 3.2 | 0.00 | 1.57 | 0.00 | 93 | 1007.6 |
| 20260507090557 | 3 | 275 | 0.0 | 1.6 | 0.00 | 1.57 | 0.00 | 93 | 1007.7 |
| 20260507090114 | 3 | 0 | 0.0 | 1.6 | 0.00 | 1.57 | 0.00 | 93 | 1007.8 |
| 20260507085557 | 3 | 0 | 0.0 | 3.2 | 0.00 | 1.57 | 0.00 | 93 | 1007.8 |
| 20260507085058 | 3 | 0 | 0.0 | 6.4 | 0.00 | 1.57 | 0.00 | 93 | 1007.7 |
| 20260507084602 | 3 | 275 | 1.6 | 6.4 | 0.00 | 1.57 | 0.00 | 93 | 1007.7 |
| 20260507084056 | 3 | 65 | 1.6 | 6.4 | 0.00 | 1.57 | 0.00 | 93 | 1007.7 |
| 20260507083600 | 3 | 61 | 1.6 | 4.8 | 0.00 | 1.57 | 0.00 | 93 | 1007.7 |
| 20260507083111 | 3 | 61 | 0.0 | 4.8 | 0.00 | 1.57 | 0.00 | 93 | 1007.8 |
| 20260507082600 | 3 | 61 | 0.0 | 4.8 | 0.00 | 1.57 | 0.00 | 93 | 1007.8 |
| 20260507082056 | 3 | 0 | 0.0 | 4.8 | 0.00 | 1.57 | 0.00 | 93 | 1007.9 |
| 20260507081602 | 3 | 0 | 0.0 | 0.0 | 0.00 | 1.57 | 0.00 | 93 | 1007.9 |
| 20260507081059 | 3 | 0 | 0.0 | 1.6 | 0.00 | 1.57 | 0.00 | 93 | 1008.1 |
| 20260507080557 | 3 | 0 | 0.0 | 1.6 | 0.00 | 1.57 | 0.00 | 93 | 1008.0 |
| 20260507075559 | 3 | 0 | 0.0 | 3.2 | 0.00 | 1.57 | 0.00 | 93 | 1008.0 |
| 20260507075057 | 3 | 0 | 0.0 | 3.2 | 0.00 | 1.57 | 0.00 | 93 | 1007.9 |
| 20260507074601 | 3 | 61 | 0.0 | 3.2 | 0.00 | 1.57 | 0.00 | 93 | 1007.8 |
| 20260507074057 | 3 | 61 | 0.0 | 3.2 | 0.00 | 1.57 | 0.00 | 93 | 1007.8 |
| 20260507073557 | 3 | 61 | 0.0 | 3.2 | 0.00 | 1.57 | 0.00 | 93 | 1007.7 |
| 20260507073106 | 3 | 0 | 0.0 | 3.2 | 0.00 | 1.57 | 0.00 | 93 | 1007.6 |
| 20260507072557 | 2 | 61 | 1.6 | 3.2 | 0.00 | 1.57 | 0.00 | 93 | 1007.6 |
| 20260507072056 | 2 | 61 | 1.6 | 3.2 | 0.00 | 1.57 | 0.00 | 92 | 1007.6 |
| 20260507071610 | 3 | 0 | 0.0 | 3.2 | 0.00 | 1.57 | 0.00 | 92 | 1007.6 |
| 20260507071101 | 3 | 0 | 0.0 | 3.2 | 0.00 | 1.57 | 0.00 | 93 | 1007.4 |
| 20260507070557 | 3 | 61 | 1.6 | 3.2 | 0.00 | 1.57 | 0.00 | 92 | 1007.2 |
| 20260507070100 | 3 | 61 | 0.0 | 3.2 | 0.00 | 1.57 | 0.00 | 92 | 1007.3 |
| 20260507065557 | 3 | 61 | 1.6 | 3.2 | 0.00 | 1.60 | 0.00 | 93 | 1007.4 |
| 20260507065057 | 3 | 0 | 0.0 | 1.6 | 0.00 | 1.60 | 0.00 | 92 | 1007.3 |
| 20260507064616 | 3 | 0 | 0.0 | 1.6 | 0.00 | 1.60 | 0.00 | 92 | 1007.4 |
| 20260507064059 | 3 | 0 | 0.0 | 3.2 | 0.00 | 1.60 | 0.00 | 92 | 1007.4 |
| 20260507063557 | 4 | 0 | 0.0 | 4.8 | 0.00 | 1.60 | 0.00 | 92 | 1007.4 |
| 20260507063108 | 4 | 0 | 1.6 | 6.4 | 0.00 | 1.60 | 0.00 | 92 | 1007.4 |
| 20260507062557 | 4 | 61 | 1.6 | 6.4 | 0.00 | 1.60 | 0.00 | 92 | 1007.4 |
| 20260507062059 | 4 | 61 | 4.8 | 6.4 | 0.00 | 1.60 | 0.00 | 92 | 1007.3 |
| 20260507061559 | 4 | 68 | 3.2 | 4.8 | 0.00 | 1.60 | 0.00 | 92 | 1007.5 |
| 20260507061058 | 4 | 76 | 1.6 | 4.8 | 0.00 | 1.60 | 0.00 | 92 | 1007.6 |
| 20260507060601 | 4 | 77 | 0.0 | 3.2 | 0.00 | 1.60 | 0.00 | 92 | 1007.6 |
| 20260507060059 | 4 | 77 | 1.6 | 6.4 | 0.00 | 1.60 | 0.00 | 92 | 1007.7 |
| 20260507055559 | 4 | 0 | 0.0 | 6.4 | 0.00 | 1.98 | 0.00 | 92 | 1007.8 |
| 20260507055057 | 4 | 20 | 3.2 | 8.0 | 0.00 | 1.98 | 0.00 | 92 | 1007.6 |
| 20260507054607 | 4 | 40 | 3.2 | 8.0 | 0.00 | 1.98 | 0.00 | 92 | 1007.7 |
| 20260507054058 | 4 | 26 | 1.6 | 4.8 | 0.00 | 1.98 | 0.00 | 92 | 1007.8 |
| 20260507053559 | 4 | 32 | 1.6 | 4.8 | 0.00 | 1.98 | 0.00 | 92 | 1008.0 |
| 20260507053101 | 4 | 32 | 1.6 | 4.8 | 0.00 | 1.98 | 0.00 | 92 | 1007.9 |
| 20260507052559 | 4 | 32 | 1.6 | 6.4 | 0.00 | 1.98 | 0.00 | 92 | 1008.2 |
| 20260507052057 | 4 | 18 | 1.6 | 6.4 | 0.00 | 1.98 | 0.00 | 92 | 1007.9 |
| 20260507051607 | 4 | 36 | 3.2 | 6.4 | 0.00 | 1.98 | 0.00 | 92 | 1008.0 |
| 20260507051059 | 4 | 315 | 1.6 | 3.2 | 0.00 | 1.98 | 0.00 | 92 | 1008.2 |
| 20260507050559 | 4 | 315 | 0.0 | 4.8 | 0.00 | 1.98 | 0.00 | 92 | 1008.0 |
| 20260507045559 | 4 | 0 | 0.0 | 4.8 | 0.00 | 2.16 | 0.00 | 92 | 1008.0 |
| 20260507045058 | 4 | 0 | 0.0 | 6.4 | 0.00 | 2.16 | 0.00 | 92 | 1007.9 |
| 20260507044602 | 4 | 5 | 3.2 | 6.4 | 0.00 | 2.16 | 0.00 | 92 | 1007.8 |
| 20260507044059 | 4 | 11 | 3.2 | 8.0 | 0.00 | 2.16 | 0.00 | 92 | 1008.0 |
| 20260507043557 | 4 | 22 | 3.2 | 8.0 | 0.00 | 2.16 | 0.00 | 93 | 1008.0 |
| 20260507043104 | 4 | 5 | 3.2 | 8.0 | 0.00 | 2.16 | 0.00 | 93 | 1008.1 |
| 20260507042559 | 4 | 13 | 3.2 | 6.4 | 0.00 | 2.16 | 0.00 | 93 | 1008.0 |
| 20260507042059 | 4 | 17 | 3.2 | 8.0 | 0.00 | 2.16 | 0.00 | 93 | 1008.0 |
| 20260507041613 | 4 | 20 | 1.6 | 8.0 | 0.00 | 2.16 | 0.00 | 92 | 1008.1 |
| 20260507041058 | 4 | 355 | 1.6 | 4.8 | 0.00 | 2.16 | 0.00 | 93 | 1008.0 |
| 20260507040600 | 4 | 0 | 0.0 | 4.8 | 0.00 | 2.16 | 0.00 | 93 | 1008.2 |
| 20260507040100 | 4 | 355 | 1.6 | 4.8 | 0.00 | 2.16 | 0.00 | 93 | 1008.1 |
| 20260507035558 | 5 | 0 | 1.6 | 4.8 | 0.00 | 2.16 | 2.16 | 93 | 1008.0 |
| 20260507035058 | 5 | 355 | 1.6 | 6.4 | 0.00 | 2.16 | 2.16 | 93 | 1008.0 |
| 20260507034615 | 5 | 32 | 1.6 | 6.4 | 0.00 | 2.16 | 2.16 | 93 | 1008.0 |
| 20260507034057 | 5 | 20 | 3.2 | 6.4 | 0.00 | 2.16 | 2.16 | 93 | 1007.9 |
| 20260507033600 | 5 | 32 | 0.0 | 4.8 | 0.00 | 2.16 | 2.16 | 93 | 1007.9 |
| 20260507033059 | 5 | 0 | 0.0 | 4.8 | 0.00 | 2.16 | 2.16 | 93 | 1008.0 |
| 20260507032557 | 5 | 0 | 0.0 | 6.4 | 0.00 | 2.16 | 2.16 | 93 | 1008.1 |
| 20260507032058 | 5 | 9 | 3.2 | 6.4 | 0.00 | 2.16 | 2.16 | 93 | 1008.0 |
| 20260507031619 | 5 | 39 | 1.6 | 4.8 | 0.00 | 2.16 | 2.16 | 93 | 1008.1 |
| 20260507031059 | 5 | 0 | 0.0 | 3.2 | 0.00 | 2.16 | 2.16 | 93 | 1008.3 |
| 20260507030558 | 5 | 0 | 0.0 | 4.8 | 0.00 | 2.16 | 2.16 | 93 | 1008.3 |
| 20260507030104 | 5 | 0 | 1.6 | 4.8 | 0.00 | 2.16 | 2.16 | 93 | 1008.3 |
| 20260507025557 | 5 | 343 | 0.0 | 6.4 | 0.00 | 2.16 | 2.16 | 93 | 1008.4 |
| 20260507025058 | 5 | 343 | 0.0 | 6.4 | 0.00 | 2.16 | 2.16 | 93 | 1008.5 |
| 20260507024607 | 5 | 0 | 1.6 | 6.4 | 0.03 | 2.16 | 2.16 | 93 | 1008.5 |
| 20260507024059 | 5 | 312 | 0.0 | 4.8 | 0.03 | 2.16 | 2.16 | 93 | 1008.5 |
| 20260507023558 | 5 | 0 | 0.0 | 4.8 | 0.03 | 2.16 | 2.16 | 93 | 1008.5 |
| 20260507023114 | 5 | 0 | 0.0 | 6.4 | 0.05 | 2.16 | 2.16 | 93 | 1008.6 |
| 20260507022600 | 5 | 0 | 0.0 | 8.0 | 0.05 | 2.16 | 2.16 | 93 | 1008.6 |
| 20260507022059 | 5 | 0 | 1.6 | 8.0 | 0.05 | 2.16 | 2.16 | 93 | 1008.6 |
| 20260507021558 | 5 | 347 | 1.6 | 8.0 | 0.05 | 2.16 | 2.16 | 93 | 1008.7 |
| 20260507021057 | 5 | 294 | 1.6 | 8.0 | 0.08 | 2.16 | 2.16 | 93 | 1008.5 |
| 20260507020558 | 5 | 321 | 1.6 | 4.8 | 0.08 | 2.16 | 2.16 | 93 | 1008.5 |
| 20260507020101 | 5 | 308 | 0.0 | 4.8 | 0.08 | 2.16 | 2.16 | 93 | 1008.2 |
| 20260507015559 | 5 | 343 | 1.6 | 6.4 | 0.10 | 2.16 | 2.16 | 93 | 1008.0 |
| 20260507015059 | 5 | 0 | 1.6 | 6.4 | 0.10 | 2.16 | 2.16 | 93 | 1008.2 |
| 20260507014607 | 5 | 5 | 1.6 | 6.4 | 0.08 | 2.13 | 2.13 | 93 | 1008.2 |
| 20260507014059 | 5 | 321 | 1.6 | 6.4 | 0.08 | 2.13 | 2.13 | 93 | 1008.4 |
| 20260507013557 | 5 | 313 | 0.0 | 3.2 | 0.08 | 2.13 | 2.13 | 94 | 1008.4 |
| 20260507013113 | 6 | 313 | 0.0 | 3.2 | 0.05 | 2.11 | 2.11 | 94 | 1008.4 |
| 20260507012558 | 5 | 0 | 0.0 | 3.2 | 0.05 | 2.11 | 2.11 | 94 | 1008.3 |
| 20260507012059 | 5 | 0 | 0.0 | 3.2 | 0.05 | 2.11 | 2.11 | 93 | 1008.5 |
| 20260507011600 | 5 | 0 | 0.0 | 4.8 | 0.08 | 2.11 | 2.11 | 93 | 1008.5 |
| 20260507011058 | 5 | 0 | 0.0 | 4.8 | 0.05 | 2.08 | 2.08 | 93 | 1008.4 |
| 20260507010600 | 5 | 313 | 1.6 | 4.8 | 0.05 | 2.08 | 2.08 | 93 | 1008.5 |
| 20260507010058 | 5 | 0 | 1.6 | 6.4 | 0.05 | 2.08 | 2.08 | 93 | 1008.5 |
| 20260507005559 | 5 | 294 | 3.2 | 6.4 | 0.03 | 2.06 | 2.06 | 93 | 1008.5 |
| 20260507005058 | 5 | 315 | 0.0 | 3.2 | 0.03 | 2.06 | 2.06 | 93 | 1008.2 |
| 20260507004611 | 5 | 14 | 0.0 | 4.8 | 0.05 | 2.06 | 2.06 | 93 | 1008.0 |
| 20260507004057 | 5 | 14 | 1.6 | 4.8 | 0.05 | 2.06 | 2.06 | 93 | 1007.8 |
| 20260507003558 | 5 | 14 | 1.6 | 4.8 | 0.05 | 2.06 | 2.06 | 93 | 1007.9 |
| 20260507003101 | 5 | 13 | 1.6 | 4.8 | 0.05 | 2.06 | 2.06 | 93 | 1007.8 |
| 20260507002559 | 5 | 13 | 0.0 | 4.8 | 0.05 | 2.06 | 2.06 | 93 | 1007.7 |
| 20260507002100 | 6 | 13 | 0.0 | 6.4 | 0.05 | 2.06 | 2.06 | 93 | 1007.6 |
| 20260507001622 | 5 | 13 | 1.6 | 6.4 | 0.03 | 2.03 | 2.03 | 93 | 1007.6 |
| 20260507001058 | 6 | 9 | 0.0 | 3.2 | 0.05 | 2.03 | 2.03 | 93 | 1007.6 |
| 20260507000600 | 5 | 48 | 0.0 | 6.4 | 0.05 | 2.03 | 2.03 | 93 | 1007.6 |
| 20260507000101 | 5 | 32 | 1.6 | 6.4 | 0.05 | 2.03 | 2.03 | 93 | 1007.5 |
| 20260506235559 | 6 | 32 | 1.6 | 6.4 | 0.05 | 2.03 | 2.03 | 93 | 1007.3 |
| 20260506235058 | 6 | 337 | 1.6 | 9.7 | 0.05 | 2.03 | 2.03 | 93 | 1007.1 |
| 20260506234558 | 6 | 0 | 4.8 | 9.7 | 0.03 | 2.01 | 2.01 | 93 | 1007.0 |
| 20260506234059 | 6 | 28 | 1.6 | 8.0 | 0.03 | 2.01 | 2.01 | 93 | 1006.8 |
| 20260506233559 | 6 | 0 | 1.6 | 8.0 | 0.03 | 2.01 | 2.01 | 93 | 1007.0 |
| 20260506233102 | 6 | 350 | 3.2 | 12.9 | 0.03 | 2.01 | 2.01 | 93 | 1006.9 |
| 20260506232558 | 6 | 5 | 4.8 | 12.9 | 0.03 | 2.01 | 2.01 | 93 | 1006.6 |
| 20260506232058 | 6 | 349 | 6.4 | 12.9 | 0.03 | 2.01 | 2.01 | 93 | 1006.6 |
| 20260506231557 | 6 | 5 | 4.8 | 12.9 | 0.03 | 2.01 | 2.01 | 93 | 1006.6 |
| 20260506231058 | 6 | 38 | 4.8 | 12.9 | 0.00 | 1.98 | 1.98 | 93 | 1006.5 |
| 20260506230557 | 6 | 23 | 1.6 | 12.9 | 0.00 | 1.98 | 1.98 | 93 | 1006.6 |
| 20260506230059 | 6 | 5 | 3.2 | 14.5 | 0.00 | 1.98 | 1.98 | 93 | 1006.6 |
| 20260506225604 | 6 | 29 | 6.4 | 17.7 | 0.00 | 1.98 | 1.98 | 93 | 1006.4 |
| 20260506225059 | 6 | 34 | 6.4 | 17.7 | 0.00 | 1.98 | 1.98 | 93 | 1006.5 |
| 20260506224556 | 6 | 24 | 4.8 | 16.1 | 0.00 | 1.98 | 1.98 | 93 | 1006.5 |
| 20260506224057 | 6 | 20 | 3.2 | 12.9 | 0.00 | 1.98 | 1.98 | 93 | 1006.4 |
| 20260506223558 | 6 | 313 | 4.8 | 16.1 | 0.00 | 1.98 | 1.98 | 93 | 1006.3 |
| 20260506223118 | 6 | 5 | 6.4 | 16.1 | 0.00 | 1.98 | 1.98 | 93 | 1006.1 |
| 20260506222557 | 6 | 28 | 6.4 | 16.1 | 0.00 | 1.98 | 1.98 | 93 | 1006.0 |
| 20260506222101 | 6 | 355 | 6.4 | 14.5 | 0.00 | 1.98 | 1.98 | 93 | 1006.0 |
| 20260506221604 | 6 | 360 | 4.8 | 16.1 | 0.00 | 1.98 | 1.98 | 93 | 1005.9 |
| 20260506221058 | 6 | 344 | 4.8 | 16.1 | 0.00 | 1.98 | 1.98 | 93 | 1005.8 |
| 20260506220557 | 6 | 355 | 6.4 | 19.3 | 0.00 | 1.98 | 1.98 | 93 | 1005.9 |
| 20260506220058 | 6 | 24 | 8.0 | 19.3 | 0.00 | 1.98 | 1.98 | 93 | 1006.0 |
| 20260506215556 | 6 | 344 | 4.8 | 16.1 | 0.00 | 1.98 | 1.98 | 93 | 1005.9 |
| 20260506215057 | 6 | 31 | 4.8 | 12.9 | 0.00 | 1.98 | 1.98 | 94 | 1005.8 |
| 20260506214609 | 6 | 5 | 6.4 | 12.9 | 0.00 | 1.98 | 1.98 | 94 | 1005.7 |
| 20260506214103 | 6 | 346 | 4.8 | 12.9 | 0.00 | 1.98 | 1.98 | 94 | 1005.8 |
| 20260506213600 | 6 | 33 | 6.4 | 12.9 | 0.00 | 1.98 | 1.98 | 93 | 1005.8 |
| 20260506213059 | 7 | 329 | 3.2 | 12.9 | 0.03 | 1.98 | 1.98 | 93 | 1005.8 |
| 20260506212558 | 6 | 352 | 6.4 | 12.9 | 0.05 | 1.98 | 1.98 | 94 | 1005.8 |
| 20260506212059 | 6 | 20 | 4.8 | 14.5 | 0.10 | 1.98 | 1.98 | 94 | 1005.8 |
| 20260506211557 | 7 | 5 | 3.2 | 14.5 | 0.10 | 1.98 | 1.98 | 94 | 1005.8 |
| 20260506211058 | 7 | 24 | 4.8 | 14.5 | 0.10 | 1.98 | 1.98 | 93 | 1005.8 |
| 20260506210558 | 7 | 360 | 6.4 | 14.5 | 0.15 | 1.98 | 1.98 | 93 | 1005.7 |
| 20260506210128 | 7 | 355 | 4.8 | 14.5 | 0.15 | 1.98 | 1.98 | 93 | 1005.7 |
| 20260506205557 | 7 | 5 | 6.4 | 16.1 | 0.18 | 2.08 | 1.98 | 93 | 1005.7 |
| 20260506205057 | 7 | 5 | 8.0 | 16.1 | 0.20 | 2.08 | 1.98 | 94 | 1005.6 |
| 20260506204557 | 7 | 355 | 6.4 | 16.1 | 0.20 | 2.08 | 1.98 | 93 | 1005.6 |
| 20260506204056 | 7 | 65 | 6.4 | 17.7 | 0.23 | 2.08 | 1.98 | 93 | 1005.7 |
| 20260506203557 | 7 | 42 | 8.0 | 17.7 | 0.25 | 2.08 | 1.98 | 94 | 1005.6 |
| 20260506203102 | 7 | 30 | 4.8 | 12.9 | 0.23 | 2.06 | 1.96 | 94 | 1005.8 |
| 20260506202558 | 7 | 30 | 4.8 | 17.7 | 0.23 | 2.03 | 1.93 | 93 | 1005.8 |
| 20260506202058 | 7 | 38 | 6.4 | 17.7 | 0.18 | 1.98 | 1.88 | 93 | 1005.7 |
| 20260506201557 | 7 | 5 | 6.4 | 17.7 | 0.18 | 1.98 | 1.88 | 93 | 1005.7 |
| 20260506201058 | 7 | 355 | 6.4 | 14.5 | 0.18 | 1.98 | 1.88 | 93 | 1005.6 |
| 20260506200557 | 7 | 31 | 4.8 | 11.3 | 0.15 | 1.93 | 1.83 | 94 | 1005.6 |
| 20260506200146 | 7 | 288 | 3.2 | 12.9 | 0.15 | 1.93 | 1.83 | 94 | 1005.7 |
| 20260506195557 | 7 | 5 | 4.8 | 14.5 | 0.13 | 1.91 | 1.80 | 93 | 1005.8 |
| 20260506195057 | 7 | 342 | 4.8 | 16.1 | 0.10 | 1.88 | 1.78 | 94 | 1005.6 |
| 20260506194607 | 7 | 43 | 4.8 | 16.1 | 0.10 | 1.88 | 1.78 | 93 | 1005.6 |
| 20260506194058 | 7 | 360 | 8.0 | 14.5 | 0.10 | 1.85 | 1.75 | 93 | 1005.5 |
| 20260506193558 | 7 | 27 | 4.8 | 14.5 | 0.08 | 1.83 | 1.73 | 93 | 1005.5 |
| 20260506193057 | 7 | 360 | 6.4 | 14.5 | 0.08 | 1.83 | 1.73 | 93 | 1005.6 |
| 20260506192557 | 7 | 35 | 6.4 | 14.5 | 0.05 | 1.80 | 1.70 | 93 | 1005.7 |
| 20260506192057 | 7 | 10 | 3.2 | 16.1 | 0.05 | 1.80 | 1.70 | 94 | 1005.7 |
| 20260506191555 | 7 | 22 | 8.0 | 16.1 | 0.05 | 1.80 | 1.70 | 94 | 1005.6 |
| 20260506191058 | 7 | 30 | 6.4 | 17.7 | 0.05 | 1.80 | 1.70 | 93 | 1005.6 |
| 20260506190558 | 7 | 18 | 4.8 | 17.7 | 0.03 | 1.78 | 1.68 | 93 | 1005.8 |
| 20260506190057 | 7 | 34 | 6.4 | 17.7 | 0.05 | 1.78 | 1.68 | 93 | 1005.7 |
| 20260506185557 | 7 | 55 | 4.8 | 14.5 | 0.05 | 1.78 | 1.68 | 93 | 1005.7 |
| 20260506185058 | 8 | 71 | 6.4 | 16.1 | 0.08 | 1.78 | 1.68 | 93 | 1005.6 |
| 20260506184601 | 8 | 17 | 4.8 | 16.1 | 0.10 | 1.78 | 1.68 | 93 | 1005.5 |
| 20260506184057 | 8 | 57 | 8.0 | 12.9 | 0.10 | 1.75 | 1.65 | 93 | 1005.5 |
| 20260506183558 | 8 | 327 | 1.6 | 9.7 | 0.13 | 1.75 | 1.65 | 93 | 1005.7 |
| 20260506183102 | 9 | 10 | 4.8 | 11.3 | 0.15 | 1.75 | 1.65 | 93 | 1005.6 |
| 20260506182557 | 9 | 5 | 6.4 | 14.5 | 0.18 | 1.75 | 1.65 | 93 | 1005.6 |
| 20260506182100 | 10 | 68 | 4.8 | 14.5 | 0.20 | 1.75 | 1.65 | 93 | 1005.4 |
| 20260506181555 | 10 | 36 | 8.0 | 14.5 | 0.20 | 1.75 | 1.65 | 93 | 1005.6 |
| 20260506181058 | 10 | 67 | 6.4 | 14.5 | 0.20 | 1.75 | 1.65 | 93 | 1005.6 |
| 20260506180602 | 11 | 21 | 4.8 | 9.7 | 0.20 | 1.75 | 1.65 | 94 | 1005.8 |
| 20260506180105 | 11 | 64 | 4.8 | 14.5 | 0.20 | 1.73 | 1.63 | 93 | 1005.9 |
| 20260506175558 | 11 | 360 | 1.6 | 14.5 | 0.23 | 1.73 | 1.63 | 93 | 1006.0 |
| 20260506175100 | 11 | 34 | 1.6 | 14.5 | 0.23 | 1.70 | 1.60 | 93 | 1006.1 |
| 20260506174601 | 12 | 301 | 1.6 | 6.4 | 0.20 | 1.68 | 1.57 | 94 | 1006.1 |
| 20260506174058 | 12 | 259 | 3.2 | 6.4 | 0.20 | 1.65 | 1.55 | 94 | 1006.1 |
| 20260506173559 | 12 | 0 | 0.0 | 6.4 | 0.20 | 1.63 | 1.52 | 94 | 1006.2 |
| 20260506173122 | 12 | 138 | 0.0 | 4.8 | 0.20 | 1.60 | 1.47 | 94 | 1006.1 |
| 20260506172600 | 12 | 0 | 0.0 | 4.8 | 0.20 | 1.57 | 1.47 | 94 | 1006.1 |
| 20260506172057 | 12 | 88 | 0.0 | 6.4 | 0.20 | 1.55 | 1.45 | 94 | 1006.1 |
| 20260506171602 | 12 | 267 | 1.6 | 6.4 | 0.23 | 1.55 | 1.45 | 94 | 1006.2 |
| 20260506171056 | 12 | 103 | 0.0 | 8.0 | 0.25 | 1.55 | 1.45 | 94 | 1006.2 |
| 20260506170559 | 12 | 0 | 0.0 | 8.0 | 0.25 | 1.55 | 1.45 | 94 | 1006.4 |
| 20260506170058 | 12 | 221 | 1.6 | 4.8 | 0.25 | 1.52 | 1.42 | 94 | 1006.3 |
| 20260506165558 | 12 | 270 | 0.0 | 8.0 | 0.23 | 1.47 | 1.40 | 94 | 1006.4 |
| 20260506165056 | 12 | 180 | 0.0 | 8.0 | 0.20 | 1.47 | 1.37 | 94 | 1006.3 |
| 20260506164559 | 12 | 0 | 0.0 | 4.8 | 0.23 | 1.47 | 1.37 | 94 | 1006.3 |
| 20260506164058 | 12 | 60 | 0.0 | 4.8 | 0.20 | 1.45 | 1.32 | 94 | 1006.3 |
| 20260506163557 | 12 | 0 | 0.0 | 3.2 | 0.20 | 1.42 | 1.32 | 94 | 1006.3 |
| 20260506163103 | 12 | 0 | 0.0 | 3.2 | 0.20 | 1.40 | 1.30 | 94 | 1006.4 |
| 20260506162558 | 12 | 0 | 0.0 | 3.2 | 0.20 | 1.37 | 1.27 | 94 | 1006.5 |
| 20260506162055 | 12 | 0 | 0.0 | 6.4 | 0.18 | 1.32 | 1.24 | 94 | 1006.5 |
| 20260506161559 | 12 | 0 | 0.0 | 12.9 | 0.18 | 1.32 | 1.22 | 94 | 1006.6 |
| 20260506161058 | 12 | 198 | 1.6 | 12.9 | 0.15 | 1.30 | 1.19 | 94 | 1006.7 |
| 20260506160556 | 12 | 216 | 1.6 | 12.9 | 0.18 | 1.30 | 1.19 | 94 | 1006.8 |
| 20260506160108 | 12 | 154 | 1.6 | 9.7 | 0.18 | 1.27 | 1.17 | 94 | 1006.8 |
| 20260506155558 | 12 | 0 | 0.0 | 4.8 | 0.20 | 1.27 | 1.17 | 94 | 1006.9 |
| 20260506155056 | 12 | 0 | 0.0 | 6.4 | 0.23 | 1.27 | 1.17 | 94 | 1006.9 |
| 20260506154600 | 12 | 0 | 0.0 | 6.4 | 0.23 | 1.24 | 1.14 | 94 | 1007.0 |
| 20260506154056 | 12 | 214 | 3.2 | 8.0 | 0.23 | 1.24 | 1.14 | 94 | 1007.1 |
| 20260506153555 | 11 | 0 | 0.0 | 8.0 | 0.20 | 1.22 | 1.12 | 94 | 1007.1 |
| 20260506153058 | 11 | 220 | 0.0 | 4.8 | 0.20 | 1.19 | 1.09 | 94 | 1007.1 |
| 20260506152556 | 12 | 236 | 0.0 | 4.8 | 0.18 | 1.17 | 1.07 | 94 | 1007.1 |
| 20260506152059 | 11 | 238 | 0.0 | 4.8 | 0.18 | 1.17 | 1.07 | 94 | 1007.1 |
| 20260506151556 | 11 | 0 | 0.0 | 3.2 | 0.18 | 1.14 | 1.04 | 94 | 1007.1 |
| 20260506151058 | 11 | 81 | 0.0 | 6.4 | 0.18 | 1.14 | 1.04 | 94 | 1007.3 |
| 20260506150557 | 11 | 0 | 0.0 | 6.4 | 0.18 | 1.12 | 1.02 | 94 | 1007.4 |
| 20260506145602 | 11 | 211 | 0.0 | 3.2 | 0.18 | 1.07 | 0.97 | 94 | 1007.5 |
| 20260506145058 | 11 | 234 | 0.0 | 3.2 | 0.15 | 1.04 | 0.94 | 94 | 1007.5 |
| 20260506144557 | 11 | 0 | 0.0 | 4.8 | 0.15 | 1.02 | 0.91 | 93 | 1007.5 |
| 20260506144056 | 11 | 0 | 0.0 | 4.8 | 0.15 | 1.02 | 0.91 | 93 | 1007.6 |
| 20260506143556 | 11 | 234 | 0.0 | 4.8 | 0.18 | 1.02 | 0.91 | 94 | 1007.7 |
| 20260506143058 | 11 | 234 | 0.0 | 6.4 | 0.15 | 0.99 | 0.89 | 93 | 1007.6 |
| 20260506142555 | 11 | 234 | 3.2 | 6.4 | 0.15 | 0.99 | 0.89 | 93 | 1007.6 |
| 20260506142057 | 11 | 244 | 0.0 | 0.0 | 0.18 | 0.99 | 0.89 | 93 | 1007.6 |
| 20260506141556 | 11 | 0 | 0.0 | 0.0 | 0.15 | 0.97 | 0.86 | 93 | 1007.7 |
| 20260506141058 | 11 | 0 | 0.0 | 0.0 | 0.18 | 0.97 | 0.86 | 94 | 1007.6 |
| 20260506140600 | 11 | 0 | 0.0 | 0.0 | 0.15 | 0.94 | 0.84 | 93 | 1007.7 |
| 20260506140059 | 11 | 0 | 0.0 | 0.0 | 0.15 | 0.91 | 0.81 | 94 | 1007.7 |
| 20260506135557 | 11 | 0 | 0.0 | 0.0 | 0.13 | 0.89 | 0.79 | 93 | 1007.8 |
| 20260506135057 | 11 | 0 | 0.0 | 0.0 | 0.15 | 0.89 | 0.79 | 93 | 1007.8 |
| 20260506134620 | 10 | 0 | 0.0 | 0.0 | 0.15 | 0.86 | 0.76 | 93 | 1007.9 |
| 20260506134100 | 10 | 0 | 0.0 | 0.0 | 0.15 | 0.86 | 0.76 | 93 | 1007.9 |
| 20260506133556 | 10 | 0 | 0.0 | 0.0 | 0.13 | 0.84 | 0.74 | 93 | 1008.0 |
| 20260506133058 | 10 | 0 | 0.0 | 0.0 | 0.13 | 0.84 | 0.74 | 93 | 1008.0 |
| 20260506132556 | 11 | 0 | 0.0 | 0.0 | 0.13 | 0.84 | 0.74 | 93 | 1007.9 |
| 20260506132056 | 11 | 0 | 0.0 | 4.8 | 0.10 | 0.81 | 0.71 | 93 | 1007.9 |
| 20260506131609 | 10 | 0 | 0.0 | 4.8 | 0.10 | 0.81 | 0.71 | 93 | 1007.8 |
| 20260506131056 | 10 | 360 | 0.0 | 6.4 | 0.10 | 0.79 | 0.69 | 93 | 1008.0 |
| 20260506130556 | 10 | 9 | 1.6 | 6.4 | 0.10 | 0.79 | 0.69 | 93 | 1008.0 |
| 20260506130058 | 10 | 40 | 1.6 | 6.4 | 0.08 | 0.76 | 0.66 | 93 | 1008.0 |
| 20260506125555 | 10 | 321 | 1.6 | 4.8 | 0.08 | 0.76 | 0.66 | 93 | 1008.4 |
| 20260506125055 | 10 | 5 | 0.0 | 3.2 | 0.05 | 0.74 | 0.64 | 93 | 1008.4 |
| 20260506124558 | 10 | 0 | 0.0 | 4.8 | 0.03 | 0.71 | 0.61 | 93 | 1008.3 |
| 20260506124058 | 10 | 5 | 1.6 | 4.8 | 0.03 | 0.71 | 0.61 | 93 | 1008.3 |
| 20260506123558 | 10 | 311 | 0.0 | 4.8 | 0.03 | 0.71 | 0.61 | 93 | 1008.5 |
| 20260506123057 | 10 | 0 | 1.6 | 6.4 | 0.03 | 0.71 | 0.61 | 93 | 1008.4 |
| 20260506122556 | 10 | 0 | 1.6 | 6.4 | 0.03 | 0.71 | 0.61 | 93 | 1008.3 |
| 20260506122057 | 10 | 0 | 3.2 | 16.1 | 0.03 | 0.71 | 0.61 | 93 | 1008.2 |
| 20260506121605 | 10 | 222 | 9.7 | 16.1 | 0.03 | 0.71 | 0.61 | 93 | 1008.4 |
| 20260506121056 | 10 | 69 | 6.4 | 12.9 | 0.00 | 0.69 | 0.58 | 93 | 1007.7 |
| 20260506120556 | 10 | 350 | 0.0 | 9.7 | 0.00 | 0.69 | 0.58 | 93 | 1008.6 |
| 20260506115558 | 10 | 293 | 1.6 | 6.4 | 0.00 | 0.69 | 0.58 | 93 | 1008.6 |
| 20260506115055 | 10 | 69 | 1.6 | 6.4 | 0.00 | 0.69 | 0.58 | 93 | 1008.5 |
| 20260506114557 | 10 | 0 | 1.6 | 6.4 | 0.00 | 0.69 | 0.58 | 93 | 1008.8 |
| 20260506114059 | 10 | 42 | 0.0 | 8.0 | 0.00 | 0.69 | 0.58 | 93 | 1008.6 |
| 20260506113602 | 10 | 344 | 3.2 | 8.0 | 0.00 | 0.69 | 0.58 | 93 | 1008.5 |
| 20260506113101 | 10 | 20 | 3.2 | 8.0 | 0.00 | 0.69 | 0.58 | 93 | 1008.3 |
| 20260506112600 | 10 | 355 | 0.0 | 3.2 | 0.00 | 0.69 | 0.58 | 93 | 1008.4 |
| 20260506112100 | 10 | 0 | 0.0 | 3.2 | 0.00 | 0.69 | 0.58 | 93 | 1008.5 |
| 20260506111622 | 10 | 82 | 0.0 | 0.0 | 0.00 | 0.69 | 0.58 | 93 | 1008.4 |
| 20260506111058 | 10 | 0 | 0.0 | 0.0 | 0.00 | 0.69 | 0.58 | 93 | 1008.5 |
| 20260506110558 | 10 | 0 | 0.0 | 1.6 | 0.00 | 0.69 | 0.58 | 93 | 1008.4 |
| 20260506110109 | 10 | 0 | 0.0 | 1.6 | 0.00 | 0.69 | 0.58 | 93 | 1008.5 |
| 20260506105558 | 10 | 0 | 0.0 | 3.2 | 0.00 | 0.69 | 0.58 | 93 | 1008.4 |
| 20260506105058 | 10 | 0 | 0.0 | 4.8 | 0.00 | 0.69 | 0.58 | 93 | 1008.4 |
| 20260506104607 | 10 | 360 | 0.0 | 6.4 | 0.00 | 0.69 | 0.58 | 93 | 1008.4 |
| 20260506104058 | 10 | 24 | 1.6 | 6.4 | 0.00 | 0.69 | 0.58 | 93 | 1008.3 |
| 20260506103559 | 10 | 44 | 3.2 | 6.4 | 0.00 | 0.69 | 0.58 | 93 | 1008.2 |
| 20260506103106 | 10 | 16 | 1.6 | 6.4 | 0.00 | 0.69 | 0.58 | 93 | 1008.4 |
| 20260506102558 | 10 | 16 | 1.6 | 6.4 | 0.00 | 0.69 | 0.58 | 93 | 1008.4 |
| 20260506102059 | 10 | 29 | 3.2 | 6.4 | 0.00 | 0.69 | 0.58 | 93 | 1008.0 |
| 20260506101602 | 10 | 22 | 3.2 | 6.4 | 0.00 | 0.69 | 0.58 | 93 | 1008.1 |
| 20260506101057 | 10 | 15 | 1.6 | 6.4 | 0.00 | 0.69 | 0.58 | 93 | 1008.5 |
| 20260506100603 | 10 | 59 | 1.6 | 6.4 | 0.00 | 0.69 | 0.58 | 93 | 1008.2 |